Tracking 19800 objects as of 23-Jul-2019
HD Live streaming from Space Station
objects crossing your sky now

MIRANDA (X-4)

Track MIRANDA (X-4) now!
10-day predictions
MIRANDA (X-4) is classified as:


NORAD ID: 7213
Int'l Code: 1974-013A
Perigee: 671.3 km
Apogee: 840.6 km
Inclination: 97.8 °
Period: 99.8 minutes
Semi major axis: 7126 km
RCS: 0.7069 m2 (medium)
Launch date: March 9, 1974
Source: United Kingdom (UK)
Launch site: AIR FORCE WESTERN TEST RANGE (AFWTR)
aabbcc
Your satellite tracking list
Your tracking list is empty




NASA's NSSDC Master Catalog

Two Line Element Set (TLE):
1  7213U 74013A   19203.80979626  .00000016  00000-0  15643-4 0  9990
2  7213  97.7804 214.4157 0118772 153.1008 207.6409 14.42928137376249
Source of the keplerian elements: AFSPC